Weather Roundup
Issued by NWS

Home | Current Version | Previous Version | Graphics & Text | Print | Product List | Glossary Off
Versions: 1 2 3 4 5 6 7 8 9 10 11 12 13 14 15 16 17 18 19 20 21 22 23 24 25 26 27 28 29 30 31 32 33 34 35 36 37 38 39 40 41 42 43 44 45 46 47 48 49 50

237
NZUS93 KARX 270710
HRRWXR

CURRENT HOURLY OBSERVATIONS ACROSS
MUCH OF THE UPPER MISSISSIPPI VALLEY
NATIONAL WEATHER SERVICE LA CROSSE WI
200 AM CDT TUE SEP 27 2016


...SOUTHEAST MINNESOTA...


CITY           SKY/WX    TMP DP  RH WIND       PRES   REMARKS
ROCHESTER      CLEAR     50  37  61 W12       29.88F
ROCHESTER/MAYO FAIR      52  35  52 W12G18    29.87S
WINONA         CLEAR     55  36  47 W12G18    29.84S
AUSTIN         CLEAR     48  36  61 W7        29.91S
ALBERT LEA     CLEAR     50  37  62 W7        29.92F
DODGE CENTER   PTCLDY    46  37  71 W10       29.88F
PRESTON        CLEAR     49  35  57 W12       29.89S
OWATONNA       CLEAR     48  37  66 W9        29.90S
FARIBAULT      CLEAR     52  37  58 W8        29.89F
$$

...ELSEWHERE IN MINNESOTA...


CITY           SKY/WX    TMP DP  RH WIND       PRES   REMARKS
MINNEAPOLIS    CLEAR     53  36  52 W12       29.86R
INTNL FALLS    LGT RAIN  49  47  93 NW12      29.70R
DULUTH         CLOUDY    51  44  77 NW13G28   29.68S
RED WING       CLEAR     52  37  58 W8        29.83S
REDWOOD FALLS  CLEAR     48  37  65 W10       29.94S
MANKATO        CLEAR     51  37  58 W10       29.92S
WORTHINGTON    CLEAR     48  36  63 W7        30.00F
FAIRMONT       CLEAR     52  37  56 W12       29.96S
$$

...SOUTHWEST WISCONSIN...


CITY           SKY/WX    TMP DP  RH WIND       PRES   REMARKS
LA CROSSE      CLEAR     57  38  48 W12       29.83F
PRAIRIE DU CHI CLEAR     55  34  45 W8        29.88S
BOSCOBEL       CLEAR     55  37  50 SW7       29.87S
LONE ROCK      CLEAR     51  40  65 W6        29.86R
PLATTEVILLE    CLEAR     49  40  69 W7        29.89S
FORT MC COY    CLEAR     49  40  70 SW5       29.82S
CAMP DOUGLAS   CLEAR     51  38  61 W14       29.79S
MAUSTON-NEW LI SUNNY     54  38  55 W12G18    29.80S
VIROQUA        FAIR      51  37  57 W8        29.85S
WIS DELLS      CLEAR     51  36  55 W7        29.82R
$$

...ELSEWHERE IN WISCONSIN...


CITY           SKY/WX    TMP DP  RH WIND       PRES   REMARKS
MILWAUKEE      CLEAR     56  37  49 SW10      29.82S
MADISON        CLEAR     54  36  50 VRB5      29.83R
GREEN BAY      CLOUDY    53  43  68 SW9       29.71F
EAU CLAIRE     CLEAR     52  41  66 W10       29.77F
BLACK RVR FLS  FAIR      49  38  66 W6        29.79S
MEDFORD        CLOUDY    50  41  71 W10       29.71S
WAUSAU         CLOUDY    52  41  66 W12       29.69F
WIS RAPIDS     PTCLDY    50  40  68 W9        29.77S
MARSHFIELD     MOCLDY    50  39  66 W10       29.74S
RICE LAKE      CLOUDY    53  39  59 W13G21    29.77S
$$

...NORTHEAST IOWA...


CITY           SKY/WX    TMP DP  RH WIND       PRES   REMARKS
WATERLOO       CLEAR     51  39  63 W7        29.94S
DUBUQUE        CLEAR     46  40  79 W8        29.91F
DECORAH        CLEAR     50  37  62 VRB5      29.89S
MASON CITY     CLEAR     47  37  68 W9        29.96S
CHARLES CITY   CLEAR     48  37  66 W7        29.94S
OELWEIN        CLEAR     46  39  76 W7        29.94S
$$

...ELSEWHERE IN IOWA...


CITY           SKY/WX    TMP DP  RH WIND       PRES   REMARKS
DES MOINES     CLEAR     53  45  74 W7        30.00S
IOWA CITY      CLEAR     50  43  77 W5        29.98S
FORT DODGE     CLEAR     48  37  66 W3        30.00S
MARSHALLTOWN   CLEAR     48  42  80 W5        29.97S
CEDAR RAPIDS   CLEAR     52  43  71 NW10      29.94F
$$

...NORTHERN ILLINOIS...


CITY           SKY/WX    TMP DP  RH WIND       PRES   REMARKS
CHICAGO-OHARE  CLEAR     55  38  52 SW9       29.88F
CHICAGO-MIDWAY CLEAR     57  39  51 SW12      29.90F
MOLINE         CLEAR     54  43  66 SW9       29.95S
ROCKFORD       CLEAR     54  41  61 SW8       29.91S
PEORIA         CLEAR     55  45  68 W7        29.99S
$$

NOTE: "FAIR" INDICATES FEW OR NO CLOUDS BELOW 12,000 FEET WITH NO
SIGNIFICANT WEATHER AND/OR OBSTRUCTIONS TO VISIBILITY. WIND
SPEEDS ARE IN MILES-PER-HOUR.




USA.gov is the U.S. government's official web portal to all federal, state and local government web resources and services.